Location: Spring Creek
(38.2870°N, 100.2160°W)
Time: 03:51:33
(UTC+00:00)

Cosmos 1000 Rocket - Pass Details

Date: 08 May 2021
Orbit: 953 x 993 km, 82.9° (Epoch: 22 June)

Event Time Altitude Azimuth Distance (km) Brightness Sun altitude
Exits shadow 08:50:32 62° 186° (S) 1,107 4.4 -26.3°
Maximum altitude 08:51:44 90° 269° (W) 994 4.4 -26.2°
Drops below altitude 10° 08:58:03 10° 7° (N) 2,744 7.6 -25.5°
Sets 09:00:34 0° 7° (N) 3,691 8.4 -25.2°
